Wind_Speed
30 30 30 30 30 31 31 31 32 32 33 33 33 33 34 34 34 34 34 34 34 34 34 34 33 34 33 33 33 33 33 33 33 32 32 32 32 33 32 32 32 32 31
32 32 32 33 33 33 34 34 34 35 35 35 35 36 36 36 37 37 36 37 36 36 37 36 36 36 36 36 36 36 36 36 36 35 35 35 34 35 34 34 34 34 34
34 35 35 36 36 36 37 37 37 37 37 38 38 38 38 38 39 38 38 38 38 38 38 38 38 38 39 39 39 38 38 38 38 38 38 37 37 37 36 36 36 36 35
37 38 38 38 39 39 39 39 39 39 40 40 40 41 40 40 41 39 39 40 40 40 40 40 41 40 41 41 41 41 41 41 41 41 41 40 40 39 39 39 39 38 37
39 40 41 41 41 41 41 41 41 41 42 42 42 42 42 42 43 42 42 42 42 42 42 43 42 42 43 43 43 44 44 44 44 44 44 43 43 42 42 42 42 40 40
41 42 42 43 43 43 43 43 43 43 43 43 43 43 43 44 45 45 45 44 44 44 44 44 44 44 44 45 45 46 46 46 46 46 46 46 45 45 45 45 44 43 43
43 43 43 43 43 43 43 44 44 44 45 45 45 45 45 45 45 46 46 47 46 46 46 47 46 46 46 47 47 48 47 48 48 49 49 48 48 47 47 47 46 46 45
43 43 43 43 44 44 44 44 45 45 46 46 47 46 46 46 46 48 47 48 48 48 49 49 49 49 49 50 50 50 50 51 51 51 51 51 51 51 50 49 49 49 48
43 43 43 43 44 45 45 45 46 46 46 47 47 48 48 48 49 48 48 48 49 50 51 52 52 52 53 53 53 54 53 54 53 54 54 54 54 54 53 52 52 51 51
43 43 43 43 44 44 44 45 45 46 46 47 48 49 50 51 50 49 49 50 51 52 53 54 55 55 56 56 56 57 56 56 56 56 56 56 55 55 55 55 54 54 53
43 43 43 43 44 44 45 45 45 45 46 47 48 48 49 50 50 51 50 51 52 53 54 55 56 57 57 57 58 58 58 58 58 57 57 57 56 56 56 55 55 55 54
43 43 43 43 43 44 44 45 45 46 47 47 48 48 49 50 51 52 52 52 53 53 55 56 56 57 57 57 57 58 58 58 58 58 58 58 57 57 55 55 56 56 55
43 44 44 44 44 44 45 45 46 47 48 49 49 49 50 51 52 53 54 54 55 54 55 55 56 57 57 57 57 57 58 58 58 58 58 58 58 57 56 56 56 56 56
44 44 45 45 46 46 47 47 48 49 50 51 52 52 52 52 53 54 55 56 57 56 56 55 55 55 56 56 57 58 58 58 58 58 57 57 57 58 58 58 57 57 55
46 46 46 47 47 48 49 49 50 50 51 52 52 53 54 55 55 56 57 58 59 58 57 56 55 55 56 57 57 58 57 57 57 56 56 56 57 58 59 59 58 57 56
47 47 48 49 49 49 50 51 51 52 52 53 53 55 55 56 57 57 57 58 58 59 58 56 55 55 56 56 57 57 57 57 56 56 56 56 57 58 58 58 58 57 56
49 49 50 51 51 51 51 52 52 53 53 54 55 56 56 57 57 57 57 57 58 59 59 56 55 55 56 57 57 57 57 57 56 56 57 57 58 58 58 58 57 57 56
50 51 52 52 52 52 53 53 53 54 54 55 56 57 57 57 58 58 58 58 58 58 58 57 55 56 57 57 57 56 56 57 56 56 56 56 57 57 57 57 56 55 54
51 51 52 52 52 53 54 54 55 55 55 56 57 57 57 57 58 58 58 57 57 57 58 58 57 56 55 55 56 56 56 54 55 55 54 54 55 55 54 54 54 53 53
51 51 51 52 53 53 54 54 55 56 56 56 56 56 56 56 57 57 57 57 57 57 57 57 57 55 54 54 55 55 53 52 52 52 52 52 52 52 52 52 53 53 53
50 51 51 52 53 53 54 55 55 56 56 55 55 55 55 55 56 56 56 56 56 56 56 55 55 54 52 53 53 53 53 51 50 49 50 50 50 49 49 50 51 51 51
51 52 52 53 53 53 54 55 55 56 55 55 54 54 54 54 55 55 55 55 55 55 54 54 54 53 52 52 52 51 51 49 48 47 48 47 47 47 46 46 46 47 47
51 52 52 53 52 52 53 54 54 54 54 53 53 53 54 54 54 54 53 52 53 54 54 54 53 52 52 51 51 49 48 47 46 45 45 44 44 44 43 43 43 43 44
51 51 52 52 52 52 53 53 53 53 52 52 52 52 52 51 52 52 51 51 51 52 52 52 52 51 51 49 48 46 45 44 43 42 42 40 38 39 41 40 40 41 41
51 51 50 51 51 50 51 51 50 50 49 50 50 50 50 50 51 52 52 51 50 51 51 51 50 49 48 47 46 45 44 43 41 39 39 37 36 37 37 37 38 38 38
49 49 49 49 49 48 47 47 47 48 48 49 48 48 49 49 49 49 50 50 50 50 49 49 48 47 45 43 42 42 41 40 38 37 36 35 34 34 33 33 34 34 35
Wind_Direction
265 265 265 267 269 270 269 269 271 272 273 274 274 274 275 275 276 277 277 277 277 278 279 279 279 279 280 279 280 280 281 281 281 281 282 282 283 284 284 284 284 283 283
266 266 266 267 269 271 271 270 271 272 273 273 274 274 275 275 276 275 276 277 277 278 278 278 278 278 278 278 279 279 279 280 280 280 281 281 282 283 283 284 284 283 283
267 268 268 269 270 271 272 271 271 271 273 273 274 275 275 275 276 276 277 277 278 278 278 278 278 278 277 277 277 278 278 278 278 279 279 280 281 282 282 282 283 283 283
269 269 270 271 272 273 273 273 271 272 272 273 274 274 275 276 276 275 276 277 278 278 278 278 277 277 278 277 277 277 277 277 278 278 278 278 279 279 280 281 281 281 282
271 271 271 272 273 274 274 274 272 272 273 274 274 275 275 276 276 276 277 277 277 277 278 277 277 277 277 277 277 277 277 277 277 278 277 277 278 278 278 278 279 280 280
273 272 272 273 273 274 274 274 273 272 273 274 275 275 275 276 277 277 277 277 277 277 277 277 277 277 277 277 277 277 277 277 277 277 277 277 277 278 277 278 278 278 278
274 273 273 273 273 274 274 274 274 273 273 274 275 276 276 277 277 278 277 277 277 277 276 276 277 277 277 277 277 277 277 277 276 276 276 276 277 277 277 277 277 277 277
275 274 274 275 274 275 274 274 274 274 274 275 276 277 277 277 277 277 277 278 278 278 278 277 277 278 278 277 277 277 277 276 276 275 275 275 275 275 276 275 275 275 276
276 275 275 276 275 275 275 274 275 275 275 275 277 277 278 278 278 277 277 277 278 278 278 278 277 278 278 277 277 277 276 276 275 275 275 274 274 274 274 274 274 274 274
276 276 275 276 277 276 276 276 276 276 276 277 277 278 279 280 280 278 278 279 279 279 279 279 279 279 279 278 277 277 276 276 275 274 274 273 273 273 273 274 273 273 273
276 276 275 275 276 276 277 277 278 278 278 279 279 280 281 281 282 281 280 280 280 280 280 280 280 281 280 279 278 277 277 276 275 274 274 273 273 273 273 272 271 271 272
275 275 276 276 277 277 277 278 279 279 280 280 281 281 282 283 283 283 283 282 282 282 282 282 282 281 280 279 278 278 277 277 276 274 273 273 273 272 272 272 272 271 271
275 275 277 278 278 279 279 279 280 280 281 281 282 282 283 284 284 284 284 284 284 284 283 283 283 282 280 279 278 277 277 276 275 275 274 273 272 272 272 272 272 271 270
276 277 278 278 279 279 279 280 280 281 282 282 282 283 284 285 286 285 285 286 285 284 284 284 283 282 281 280 279 277 277 276 275 274 274 273 272 272 271 271 271 271 269
275 277 278 278 279 279 279 280 281 282 283 283 283 284 285 285 286 286 286 286 286 286 284 284 283 282 281 280 279 278 278 276 275 274 274 273 272 272 272 271 271 271 269
276 277 278 279 280 280 280 281 282 282 282 283 283 284 285 286 286 287 286 286 287 287 286 285 283 282 281 280 280 279 278 276 275 274 273 272 272 273 272 272 271 270 270
276 277 279 280 280 280 280 281 282 282 282 283 284 285 286 286 286 286 286 286 286 287 287 287 285 284 283 282 281 281 279 277 276 275 274 272 272 273 273 272 271 271 270
277 278 279 280 280 280 281 281 282 282 283 284 285 285 286 286 286 286 286 286 286 286 287 287 286 284 283 283 282 281 280 278 277 275 275 274 273 272 272 271 271 271 270
277 279 280 280 280 280 280 281 282 283 283 284 285 285 286 286 286 286 286 286 286 286 287 287 287 285 284 283 283 282 280 278 277 276 275 274 273 273 272 270 270 270 270
278 279 280 280 280 280 281 282 283 284 284 285 285 285 286 286 286 286 286 287 287 287 287 287 287 286 285 284 284 282 280 279 278 277 275 275 273 273 273 272 270 269 269
277 279 280 280 281 281 282 283 284 284 285 285 286 286 286 286 286 287 287 288 288 288 288 288 288 287 287 286 285 283 282 280 278 277 275 273 272 273 273 273 272 271 271
277 278 280 281 281 282 283 284 285 285 285 286 286 286 286 287 287 287 288 288 289 289 289 288 288 288 288 287 286 284 282 280 277 276 276 274 272 273 273 272 270 270 271
277 278 280 282 283 283 283 284 284 285 285 286 286 287 287 287 287 288 288 288 288 289 290 289 289 289 288 288 286 284 281 280 279 277 276 274 273 272 272 271 270 269 269
278 280 281 282 283 283 284 284 284 284 285 286 287 288 288 287 288 288 288 288 289 290 290 291 291 290 289 287 286 283 281 279 278 276 275 275 272 272 272 270 270 270 270
279 280 282 283 283 283 283 284 284 285 286 287 288 288 289 288 288 288 288 289 289 290 290 291 291 289 288 287 284 282 281 279 277 275 274 276 273 273 272 271 269 270 270
280 281 282 283 283 284 284 284 284 285 287 288 289 289 289 289 290 290 290 290 290 290 290 290 289 288 287 285 283 282 281 280 278 276 273 274 273 273 271 271 271 270 268
Height
5815 5816 5817 5817 5817 5818 5818 5819 5819 5819 5820 5820 5820 5820 5820 5820 5820 5820 5820 5820 5819 5819 5819 5818 5818 5817 5817 5816 5816 5815 5815 5814 5813 5813 5812 5811 5811 5810 5809 5808 5807 5806 5806
5808 5809 5810 5810 5811 5811 5811 5812 5812 5812 5812 5812 5812 5813 5813 5813 5812 5812 5812 5812 5811 5811 5811 5810 5810 5810 5809 5809 5808 5808 5807 5806 5806 5805 5805 5804 5803 5803 5802 5801 5800 5799 5798
5801 5802 5802 5803 5803 5803 5804 5804 5804 5804 5804 5804 5804 5804 5804 5804 5804 5804 5803 5803 5803 5803 5802 5802 5801 5801 5801 5800 5800 5799 5798 5798 5797 5797 5797 5796 5795 5795 5794 5793 5792 5791 5791
5793 5794 5794 5795 5795 5795 5795 5795 5795 5795 5795 5795 5795 5795 5795 5795 5795 5794 5795 5794 5794 5794 5793 5793 5792 5792 5791 5791 5790 5790 5789 5789 5788 5788 5787 5787 5787 5786 5785 5785 5784 5783 5782
5785 5785 5785 5785 5785 5786 5786 5786 5786 5786 5786 5786 5785 5785 5785 5785 5785 5785 5785 5785 5784 5784 5783 5783 5782 5782 5781 5781 5780 5780 5779 5779 5778 5778 5777 5777 5777 5776 5776 5775 5774 5773 5773
5775 5775 5776 5776 5776 5776 5776 5776 5776 5775 5775 5775 5775 5775 5775 5775 5775 5774 5774 5774 5773 5773 5772 5772 5771 5771 5770 5770 5769 5769 5769 5768 5768 5767 5767 5766 5766 5766 5765 5764 5763 5763 5763
5765 5765 5766 5765 5765 5765 5765 5765 5765 5765 5764 5764 5764 5764 5764 5764 5764 5763 5763 5762 5762 5761 5761 5760 5760 5759 5759 5758 5758 5757 5757 5756 5756 5756 5755 5755 5754 5754 5754 5753 5753 5752 5751
5755 5755 5755 5755 5755 5754 5754 5754 5754 5754 5754 5753 5752 5752 5753 5754 5753 5752 5751 5750 5749 5749 5749 5748 5747 5747 5746 5746 5745 5745 5744 5743 5743 5743 5743 5742 5741 5741 5741 5741 5741 5740 5740
5745 5745 5745 5745 5744 5744 5744 5743 5743 5742 5743 5742 5741 5740 5740 5740 5741 5741 5739 5738 5737 5737 5736 5736 5735 5734 5733 5732 5731 5731 5730 5729 5729 5729 5728 5728 5727 5727 5728 5728 5727 5727 5727
5736 5735 5735 5735 5734 5733 5733 5732 5731 5731 5731 5731 5730 5728 5727 5726 5726 5727 5727 5725 5724 5724 5723 5722 5721 5719 5718 5717 5716 5715 5715 5714 5713 5713 5713 5713 5713 5712 5712 5713 5713 5713 5713
5726 5726 5725 5725 5724 5723 5723 5722 5721 5721 5720 5719 5718 5717 5715 5714 5712 5712 5713 5713 5711 5710 5709 5707 5706 5704 5702 5701 5700 5699 5698 5698 5697 5697 5697 5697 5697 5697 5697 5697 5697 5698 5698
5716 5716 5715 5714 5713 5713 5712 5712 5711 5710 5709 5708 5706 5705 5703 5702 5700 5698 5698 5698 5697 5697 5695 5693 5691 5688 5686 5685 5683 5683 5682 5681 5680 5680 5680 5680 5681 5681 5681 5681 5681 5682 5682
5706 5705 5704 5704 5703 5702 5701 5701 5700 5699 5697 5696 5694 5693 5691 5689 5686 5684 5683 5682 5682 5682 5680 5679 5675 5672 5670 5669 5667 5666 5666 5665 5664 5663 5663 5664 5664 5664 5664 5665 5665 5666 5666
5696 5695 5694 5693 5692 5691 5690 5689 5688 5687 5685 5684 5682 5680 5678 5676 5673 5671 5668 5665 5664 5666 5666 5665 5661 5657 5655 5653 5651 5650 5650 5649 5648 5647 5647 5647 5647 5647 5647 5648 5648 5648 5649
5685 5684 5683 5682 5681 5680 5679 5677 5676 5674 5673 5671 5669 5667 5665 5663 5660 5657 5654 5650 5647 5647 5649 5650 5646 5643 5639 5637 5636 5634 5633 5632 5631 5631 5631 5630 5630 5630 5630 5630 5631 5631 5632
5673 5672 5671 5670 5669 5668 5666 5665 5663 5661 5660 5658 5656 5654 5651 5648 5645 5642 5639 5636 5632 5629 5630 5633 5630 5627 5624 5621 5619 5617 5616 5615 5615 5614 5614 5613 5613 5613 5613 5613 5614 5615 5616
5661 5660 5659 5658 5656 5655 5653 5651 5650 5648 5646 5645 5642 5640 5637 5633 5630 5627 5624 5621 5618 5614 5612 5615 5614 5611 5607 5605 5603 5601 5599 5599 5598 5598 5597 5596 5596 5596 5596 5596 5597 5597 5598
5649 5648 5646 5645 5643 5641 5639 5638 5636 5634 5632 5630 5628 5625 5622 5619 5616 5612 5609 5606 5603 5600 5597 5597 5597 5594 5591 5588 5586 5585 5583 5581 5581 5580 5579 5579 5578 5578 5578 5579 5579 5580 5581
5636 5635 5633 5631 5629 5627 5625 5623 5622 5620 5618 5616 5613 5610 5607 5603 5601 5597 5594 5591 5588 5585 5581 5580 5580 5578 5575 5572 5569 5568 5567 5565 5563 5562 5562 5562 5561 5561 5561 5562 5562 5563 5564
5623 5621 5619 5617 5615 5613 5611 5609 5607 5606 5603 5601 5598 5595 5592 5589 5585 5582 5579 5576 5573 5570 5566 5564 5563 5561 5559 5556 5553 5551 5551 5549 5548 5546 5545 5545 5545 5545 5545 5545 5546 5547 5547
5611 5609 5606 5604 5602 5600 5598 5595 5593 5591 5589 5586 5584 5581 5577 5574 5570 5567 5564 5561 5557 5554 5551 5548 5546 5545 5543 5540 5538 5535 5534 5533 5533 5530 5530 5530 5530 5530 5530 5529 5529 5530 5530
5598 5596 5594 5592 5589 5587 5584 5581 5578 5576 5574 5572 5569 5566 5563 5560 5556 5553 5549 5546 5542 5539 5536 5533 5531 5529 5527 5525 5522 5519 5517 5516 5517 5518 5514 5516 5515 5515 5515 5514 5514 5514 5514
5585 5583 5581 5578 5576 5573 5570 5567 5564 5561 5559 5557 5554 5552 5549 5546 5542 5538 5535 5532 5528 5525 5521 5518 5516 5514 5512 5509 5506 5504 5502 5500 5501 5501 5499 5500 5501 5500 5500 5499 5499 5499 5500
5571 5569 5567 5564 5562 5559 5556 5553 5550 5548 5546 5543 5541 5538 5534 5532 5528 5524 5522 5519 5515 5512 5508 5504 5501 5499 5496 5493 5490 5489 5487 5487 5487 5486 5484 5484 5486 5487 5487 5486 5486 5486 5486
5558 5556 5553 5551 5549 5546 5542 5540 5537 5535 5533 5530 5527 5524 5521 5518 5515 5511 5508 5505 5502 5499 5494 5490 5487 5484 5481 5479 5476 5474 5474 5472 5473 5475 5473 5472 5473 5474 5475 5475 5474 5474 5474
5545 5543 5541 5538 5535 5533 5530 5527 5524 5522 5520 5518 5515 5512 5508 5505 5501 5497 5494 5491 5488 5485 5481 5478 5475 5471 5468 5466 5464 5462 5461 5460 5460 5462 5463 5461 5461 5461 5463 5465 5464 5464 5464